Weather in Zavolzhskoye

Russia / Astrakhan Oblast     46°58′50″N   47°36′39″E
temp.,
°C
wind,
m/s
gust,
m/s
humid.,
%
clouds,
%
prec.,
mm/h
press.,
hPa
HPBL,
m
1 august, sun
sun101:00+26se445221 0.0 101149
04:00+24sse455796 0.0 101198
07:00+25s34555 0.0 1012131
10:00+29sse23465 0.0 1012517
13:00+32sw13415 0.0 10111234
16:00+32wsw23394 0.0 10101408
19:00+31s334472 0.4 1010419
22:00+29s464638 0.6 101169
2 august, mon
mon201:00+27ssw45495 0.1 101168
04:00+25wsw225237 0.1 101112
07:00+27s114898 0.0 101230
10:00+31sse23369 0.0 1012431
13:00+34ssw243128 0.0 10111555
16:00+36wsw4523100 0.0 10102124
19:00+35ssw342690 0.0 1010151
22:00+31s442898 0.0 101139
3 august, tue
tue301:00+28s333741 0.0 101016
04:00+26ssw3346100 0.0 101113
07:00+28wsw114735 0.0 101211
10:00+31ese11363 0.0 1012325
13:00+36ssw24270 0.0 10112001
16:00+37wsw34232 0.0 10092047
19:00+36ssw45235 0.0 1009216
22:00+31s57274 0.0 101072
4 august, wed
wed401:00+29ssw45320 0.0 101043
04:00+27sw45370 0.0 101043
07:00+28ssw33390 0.0 101152
10:00+33s34285 0.0 1011329
13:00+36sw452198 0.0 10101566
16:00+37sw342185 0.0 10092169
19:00+32nnw79375 0.0 1009249
22:00+29wnw334533 0.0 101114
5 august, thu
thu501:00+27nw585088 0.0 1011110
04:00+27n6105352 0.0 1011210
07:00+27n5958100 0.1 1012215
10:00+24nnw81073100 0.2 1014382
13:00+26nnw236040 0.1 1014324
16:00+30nw4548100 0.1 10131053
19:00+30n56410 0.0 1012735
22:00+27n44464 0.0 101338